Regional Weather Roundup
Issued by NWS

Home | Current Version | Previous Version | Graphics & Text | Print | Product List | Glossary On
Versions: 1 2 3 4 5 6 7 8 9 10 11 12 13 14 15 16 17 18 19 20 21 22 23 24 25 26 27 28 29 30 31 32 33 34 35 36 37 38 39 40 41 42 43 44 45 46 47 48 49 50
000
ASUS45 KPSR 301700
RWRAZ

ARIZONA HOURLY REGIONAL WEATHER ROUNDUP
NATIONAL WEATHER SERVICE PHOENIX AZ
1000 AM MST THU JUL 30 2015

NOTE: FAIR INDICATES FEW OR NO CLOUDS BELOW 12,000 FEET WITH NO
SIGNIFICANT WEATHER AND/OR OBSTRUCTIONS TO VISIBILITY.

AZZ001>003-036-301800-
NORTHWEST ARIZONA

CITY           SKY/WX    TMP DP  RH WIND       PRES   REMARKS
KINGMAN        CLOUDY    88  54  31 CALM      30.18S
$$

AZZ004>008-015-016-018-301800-
NORTH CENTRAL ARIZONA

CITY           SKY/WX    TMP DP  RH WIND       PRES   REMARKS
GRAND CANYON   MOSUNNY   75  50  41 E5        30.42S
WILLIAMS       PTSUNNY   75  50  41 NE6       30.47F
PRESCOTT       CLOUDY    76  56  49 E6        30.30S
FLAGSTAFF      NOT AVBL
PAYSON         MOSUNNY   75  57  53 CALM      30.33S
PAGE           MOSUNNY   83  55  38 NW3       30.26S
$$

AZZ009>014-017-301800-
NORTHEAST ARIZONA

CITY           SKY/WX    TMP DP  RH WIND       PRES   REMARKS
WINSLOW        NOT AVBL
SAINT JOHNS    CLOUDY    71  57  61 E5        30.36F
SHOW LOW       PTSUNNY   64  59  82 NW3       30.42S
$$

AZZ023-301800-
GREATER PHOENIX AREA

CITY           SKY/WX    TMP DP  RH WIND       PRES   REMARKS
PHOENIX        PTSUNNY   93  61  34 VRB6      30.02S
GLENDALE       PTSUNNY   93  63  36 E6        30.04S
DEER VALLEY    MOSUNNY   92  59  33 SE8       30.04S
SCOTTSDALE     MOSUNNY   92  59  33 E7        30.06S
MESA-FALCON    PTSUNNY   93  59  31 NE12      30.04S
MESA-GATEWAY   MOSUNNY   91  61  35 SE3       30.05F
CHANDLER       PTSUNNY   93  61  33 E6        30.03F
$$

AZZ027-028-301800-
SOUTHWEST MARICOPA COUNTY AND PINAL COUNTY

CITY           SKY/WX    TMP DP  RH WIND       PRES   REMARKS
CASA GRANDE    SUNNY     91  63  38 CALM      30.04S
$$

AZZ503-504-507>509-301800-
SOUTHEAST ARIZONA

CITY           SKY/WX    TMP DP  RH WIND       PRES   REMARKS
TUCSON         SUNNY     87  61  41 S6        30.14F
RYAN FIELD     SUNNY     90  64  43 E8        30.12F
NOGALES        SUNNY     83  62  49 VRB3      30.21F
SAFFORD        PTSUNNY   81  63  54 MISG      30.20F
$$

AZZ020-021-025-026-031-301800-
SOUTHWEST ARIZONA

CITY           SKY/WX    TMP DP  RH WIND       PRES   REMARKS
YUMA           NOT AVBL
$$

CAZ031-033-041-043-047-048-061-301800-
SOUTHERN CALIFORNIA

CITY           SKY/WX    TMP DP  RH WIND       PRES   REMARKS
DOWNTOWN L.A.  PTSUNNY   74  64  71 VRB5      30.00S
L.A. AIRPORT   PTSUNNY   71  65  81 W8        30.02S
SAN DIEGO      MOSUNNY   76  65  68 NW5       30.02S
BURBANK        PTSUNNY   76  63  64 SE3       30.01F
ONTARIO        PTSUNNY   80  64  58 S6        30.01S
RIVERSIDE      MOSUNNY   81  64  56 W5        30.01S
PALM SPRINGS   MOSUNNY   97  67  37 E3        29.98S HX 101
EL CENTRO NAS  MOSUNNY   97  72  44 CALM      29.93S HX 105
IMPERIAL       SUNNY     96  71  44 SE7       29.91S HX 103
BLYTHE         SUNNY     98  64  32 S8        29.95S HX 100
$$

NVZ020-UTZ003-301800-
SOUTHERN NEVADA-UTAH

CITY           SKY/WX    TMP DP  RH WIND       PRES   REMARKS
LAS VEGAS      NOT AVBL
SALT LAKE CITY MOSUNNY   78  36  21 N12       30.30S
$$

NMZ009-TXZ055-301800-
NEW MEXICO-WEST TEXAS

CITY           SKY/WX    TMP DP  RH WIND       PRES   REMARKS
ALBUQUERQUE    PTSUNNY   72  60  66 NW5       30.39F
EL PASO        MOSUNNY   75  64  68 N14       30.26S
$$


........................KEY........................
SKY/WX - SKY CONDITION/WEATHER
TMP    - TEMPERATURE IN FAHRENHEIT
DP     - DEW POINT IN FAHRENHEIT
RH     - RELATIVE HUMIDITY IN PERCENT
WIND   - DIRECTION AND SPEED IN MILES PER HOUR (MPH)
VRB    - VARIABLE WIND DIRECTION
PRES   - MEAN SEA LEVEL PRESSURE IN INCHES OF MERCURY
         F - FALLING PRESSURE   R - RISING PRESSURE
         S - STEADY PRESSURE
VSB    - VISIBILITY IN MILES
HX     - HEAT INDEX IN FAHRENHEIT
WCI    - WIND CHILL INDEX IN FAHRENHEIT
TC     - TEMPERATURE IN CELSIUS WHICH IS ALSO KNOWN AS
         TEMPERATURE IN CENTIGRADE
AFB    - AIR FORCE BASE
         LUKE AFB IS LUKE AIR FORCE BASE
         DAVIS-MONTHAN IS DAVIS-MONTHAN AIR FORCE BASE
NAS    - NAVAL AIR STATION
         EL CENTRO NAS IS EL CENTRO NAVAL AIR STATION
N/A    - NOT AVAILABLE



USA.gov is the U.S. government's official web portal to all federal, state and local government web resources and services.